Regional Weather Roundup
Issued by NWS

Home | Current Version | Previous Version | Text Only | Print | Product List | Glossary Off
Versions: 1 2 3 4 5 6 7 8 9 10 11 12 13 14 15 16 17 18 19 20 21 22 23 24 25 26 27

000
ASUS45 KCYS 150710
RWRWY

WYOMING REGIONAL WEATHER ROUNDUP
NATIONAL WEATHER SERVICE CHEYENNE WY
1200 AM MST FRI DEC 15 2017

NOTE:  "FAIR" INDICATES FEW OR NO CLOUDS BELOW 12,000 FEET
WITH NO SIGNIFICANT WEATHER AND/OR OBSTRUCTIONS TO VISIBILITY.

WYZ001-150800-
YELLOWSTONE NATIONAL PARK

CITY           SKY/WX    TMP DP  RH WIND       PRES   REMARKS
LK YELLOWSTONE   N/A      5   2  87 NW3       30.31S
W YELLOWSTONE  NOT AVBL

$$
WYZ002>013-054>058-071-098>099-150800-
NORTHERN WYOMING

CITY           SKY/WX    TMP DP  RH WIND       PRES   REMARKS
JACKSON        FAIR       9   6  88 NE6       30.34  WCI  -1
CODY           FAIR      21  15  78 NE8       30.10R WCI  11
GREYBULL       FAIR      25  18  74 E3        30.14F
WORLAND        FAIR      18  15  88 SE3       30.13F
SHERIDAN       FAIR      22  15  75 CALM      30.03F
BUFFALO        FAIR      32   4  30 SW5       30.03F WCI  27
GILLETTE       FAIR      28  17  63 SW15      30.04F WCI  16
HULETT         FAIR      27  19  74 S12       30.04F WCI  16
NEWCASTLE      FAIR      18  14  86 N7        30.10S WCI   8

$$
WYZ014>020-022>026-101>103-150800-
CENTRAL WYOMING

CITY           SKY/WX    TMP DP  RH WIND       PRES   REMARKS
BIG PINEY      FAIR       9   4  80 CALM      30.27F
PINEDALE       FAIR       9   5  85 NW3       30.27F
DUBOIS         FAIR      32   0  25 NW17G23   30.18F WCI  21
LANDER         FAIR      18  13  80 N5        30.14S WCI  11
RIVERTON       FAIR      18  15  88 NW7       30.15F WCI   9
CASPER         FAIR      28  17  63 SW18      30.12F WCI  15
DOUGLAS        FAIR      20  14  77 N5        30.10F WCI  13

$$
WYZ021-027>030-104>119-150800-
SOUTHERN WYOMING

CITY           SKY/WX    TMP DP  RH WIND       PRES   REMARKS
EVANSTON       FAIR      22  16  78 SW13      30.34R WCI  10
FORT BRIDGER   PTSUNNY   32   3  29 W17       30.32S WCI  21
ROCK SPRINGS   FAIR      25  13  60 W12       30.26F WCI  14
DIXON          FAIR      12   8  83 E6        30.34F WCI   3
RAWLINS        FAIR      26  15  63 VRB6      30.21F WCI  19
SARATOGA       FAIR      19  10  68 SE16      30.25F WCI   5
LARAMIE        FAIR      18   8  65 SW13      30.15F WCI   5
CHEYENNE       FAIR      24  10  55 W12       30.11F WCI  13
TORRINGTON     FAIR      14  12  92 CALM      30.11F
PINE BLUFFS    FAIR      16  10  79 W6        30.15F WCI   7

$$




USA.gov is the U.S. government's official web portal to all federal, state and local government web resources and services.